Flag for USA

Past Weather in Fairfield Historic District, Louisiana, USA — Yesterday and Last 2 Weeks

Now
73 °F

Thunderstorms. Mostly cloudy.


Feels Like: 70 °F
Forecast: 87 / 77 °F
Wind: 8 mph from Northwest

Location: Shreveport Regional Airport

Current Time: Jul 5, 2020 at 6:39:24 am

Latest Report: Jul 5, 2020 at 5:56 am


Visibility: 10 mi

Pressure: 29.88 "Hg

Humidity: 94%

Dew Point: 71 °F

Location of Fairfield Historic DistrictLocation

Past Weather in Fairfield Historic District — Graph

°F

Fairfield Historic District Temperature Yesterday

Maximum temperature yesterday: 92 °F (at 3:56 pm)
Minimum temperature yesterday: 70 °F (at 3:56 am)
Average temperature yesterday: 81 °F

High & Low Weather Summary for the Past Weeks

 TemperatureHumidityPressure
High93 °F (Jul 1, 3:56 pm)97% (Jun 24, 12:56 am)30.12 "Hg (Jun 24, 12:56 am)
Low70 °F (Jul 4, 3:56 am)50% (Jun 20, 3:56 pm)29.80 "Hg (Jun 28, 6:56 pm)
Average81 °F79%29.93 "Hg
* Reported Jun 20 5:56 am — Jul 5 5:15 am, Fairfield Historic District. Weather by CustomWeather, © 2020

Note: Actual official high and low records may vary slightly from our data, if they occured in-between our weather recording intervals... More about our weather records

Fairfield Historic District Weather History for the Previous 24 Hours

Scroll right to see more
 ConditionsComfort  
Time TempWeatherWind HumidityBarometerVisibility
5:15 am
Sun, Jul 5
73 °FStrong thunderstorms. Fog.7 mph94%29.90 "Hg1 mi
5:03 am73 °FStrong thunderstorms. Fog.13 mph94%29.90 "Hg1 mi
4:42 am73 °FStrong thunderstorms. Fog.14 mph97%29.92 "Hg1 mi
4:19 am79 °FThunderstorms. Overcast.17 mph82%29.89 "Hg10 mi
3:56 am79 °FLight rain. Mostly cloudy.7 mph77%29.83 "Hg10 mi
2:56 am79 °FMostly cloudy.5 mph84%29.84 "Hg10 mi
1:56 am80 °FPartly cloudy.7 mph87%29.82 "Hg10 mi
12:56 am80 °FPassing clouds.5 mph87%29.84 "Hg7 mi
11:56 pm
Sat, Jul 4
81 °FPassing clouds.5 mph82%29.86 "Hg5 mi
10:56 pm82 °FPassing clouds.3 mph82%29.87 "Hg5 mi
9:56 pm83 °FPassing clouds.3 mph77%29.86 "Hg6 mi
8:56 pm84 °FPartly cloudy.6 mph72%29.84 "Hg10 mi
7:56 pm88 °FBroken clouds.3 mph63%29.84 "Hg10 mi
6:56 pm90 °FBroken clouds.6 mph59%29.83 "Hg10 mi
5:56 pm91 °FScattered clouds.No wind57%29.83 "Hg10 mi
4:56 pm92 °FScattered clouds.No wind56%29.83 "Hg10 mi
3:56 pm92 °FPassing clouds.7 mph54%29.88 "Hg10 mi
2:56 pm91 °FScattered clouds.No wind56%29.90 "Hg10 mi
1:56 pm90 °FScattered clouds.8 mph57%29.92 "Hg10 mi
12:56 pm89 °FScattered clouds.8 mph55%29.94 "Hg10 mi
11:56 am87 °FScattered clouds.5 mph61%29.96 "Hg10 mi
10:56 am84 °FScattered clouds.5 mph67%29.96 "Hg10 mi
9:56 am81 °FPassing clouds.7 mph77%29.95 "Hg10 mi
8:56 am77 °FPassing clouds.3 mph85%29.95 "Hg10 mi
7:56 am73 °FPassing clouds.5 mph94%29.95 "Hg10 mi
6:56 am71 °FPassing clouds.5 mph93%29.95 "Hg10 mi
Weather by CustomWeather, © 2020

See weather overview